Awendaw, SC

7:17 PM EDT on August 24, 2016 (GMT -0400)
Mount Pleasant

Weather History for KLRO - July, 2013

Change the Weather History Date:

Saturday, July 20, 2013

  Actual Average (KCHS) Record (KCHS)
Temperature  
Mean Temperature 81 °F 82 °F  
Max Temperature 87 °F 91 °F 104 °F (1986)
Min Temperature 75 °F 73 °F 66 °F (1987)
Degree Days  
Heating Degree Days 0 0  
Month to date heating degree days 0  
Since 1 June heating degree days 1  
Since 1 July heating degree days 0  
Cooling Degree Days 16 17  
Month to date cooling degree days 337  
Year to date cooling degree days 1120  
Since 1 June cooling degree days 758  
Growing Degree Days 31 (Base 50)    
Moisture  
Dew Point 75 °F    
Average Humidity 82    
Maximum Humidity 94    
Minimum Humidity 66    
Precipitation  
Precipitation 0.85 in 0.21 in 2.41 in (1994)
Month to date precipitation 4.25  
Year to date precipitation 26.21  
Sea Level Pressure  
Sea Level Pressure 30.06 in    
Wind  
Wind Speed 9 mph (SSW)    
Max Wind Speed 18 mph    
Max Gust Speed 32 mph    
Visibility 8 miles    
Events Rain , Thunderstorm    
T = Trace of Precipitation, MM = Missing Value Source: NWS Daily Summary

Daily Weather History Graph

Daily Weather History Graph

Search for Another Location

Airport or City:

Trip Planner

Search our weather history database for the weather conditions in past years. The results will help you decide how hot, cold, wet, or windy it might be!

Date:

Astronomy

Jul. 20, 2013 Rise Set
Actual Time 6:24 AM EDT 8:25 PM EDT
Civil Twilight 5:57 AM EDT 8:53 PM EDT
Nautical Twilight 5:23 AM EDT 9:27 PM EDT
Astronomical Twilight 4:47 AM EDT 10:02 PM EDT
Moon 6:28 PM EDT (7/20) 4:02 AM EDT (7/20)
Length of Visible Light 14h 56m
Length of Day
14h 00m
Waxing Gibbous, 93% of the Moon is Illuminated
Jul 20
Waxing Gibbous
Jul 22
Full
Jul 29
Last Quarter
Aug 6
New
Aug 14
First Quarter

Hourly Weather History & Observations

Time (EDT) Temp. Heat Index Dew Point Humidity Pressure Visibility Wind Dir Wind Speed Gust Speed Precip Events Conditions
12:15 AM 80.6 °F 85.4 °F 73.4 °F 79% 30.10 in 10.0 mi SSW 8.1 mph - N/A   Clear
12:35 AM 80.6 °F 85.4 °F 73.4 °F 79% 30.10 in 10.0 mi SSW 6.9 mph - N/A   Clear
12:55 AM 80.6 °F 85.4 °F 73.4 °F 79% 30.10 in 10.0 mi SSW 9.2 mph - N/A   Clear
1:15 AM 80.6 °F 85.4 °F 73.4 °F 79% 30.10 in 10.0 mi SSW 9.2 mph 16.1 mph N/A   Partly Cloudy
1:35 AM 80.6 °F 85.4 °F 73.4 °F 79% 30.10 in 10.0 mi SSW 15.0 mph 18.4 mph N/A   Partly Cloudy
1:55 AM 80.6 °F 85.4 °F 73.4 °F 79% 30.10 in 10.0 mi SSW 12.7 mph 17.3 mph N/A   Clear
2:15 AM 80.6 °F 85.4 °F 73.4 °F 79% 30.09 in 10.0 mi South 11.5 mph 17.3 mph N/A   Clear
2:35 AM 80.6 °F 85.4 °F 73.4 °F 79% 30.09 in 10.0 mi South 10.4 mph 17.3 mph N/A   Partly Cloudy
2:55 AM 80.6 °F 85.4 °F 73.4 °F 79% 30.09 in 10.0 mi South 10.4 mph - N/A   Scattered Clouds
3:15 AM 80.6 °F 85.4 °F 73.4 °F 79% 30.08 in 9.0 mi South 13.8 mph 24.2 mph N/A   Mostly Cloudy
3:35 AM 78.8 °F - 73.4 °F 83% 30.07 in 8.0 mi South 11.5 mph 21.9 mph N/A   Scattered Clouds
3:55 AM 78.8 °F - 73.4 °F 83% 30.07 in 7.0 mi South 9.2 mph - N/A   Clear
4:15 AM 78.8 °F - 75.2 °F 89% 30.06 in 7.0 mi South 8.1 mph - N/A   Clear
4:35 AM 78.8 °F - 75.2 °F 89% 30.06 in 6.0 mi South 6.9 mph - N/A   Clear
4:55 AM 78.8 °F - 75.2 °F 89% 30.06 in 7.0 mi South 8.1 mph - N/A   Partly Cloudy
5:15 AM 78.8 °F - 75.2 °F 89% 30.06 in 7.0 mi South 6.9 mph - N/A   Scattered Clouds
5:35 AM 78.8 °F - 75.2 °F 89% 30.06 in 7.0 mi SSW 5.8 mph - N/A   Partly Cloudy
5:55 AM 78.8 °F - 75.2 °F 89% 30.07 in 7.0 mi South 4.6 mph - N/A   Partly Cloudy
6:15 AM 77.0 °F - 75.2 °F 94% 30.07 in 7.0 mi South 4.6 mph - N/A   Clear
6:35 AM 78.8 °F - 75.2 °F 89% 30.07 in 7.0 mi SSW 4.6 mph - N/A   Clear
6:55 AM 78.8 °F - 75.2 °F 89% 30.07 in 8.0 mi SSW 5.8 mph - N/A   Clear
7:15 AM 78.8 °F - 75.2 °F 89% 30.07 in 9.0 mi South 4.6 mph - N/A   Clear
7:35 AM 78.8 °F - 75.2 °F 89% 30.07 in 9.0 mi SW 6.9 mph - N/A   Clear
7:55 AM 80.6 °F 86.2 °F 75.2 °F 84% 30.07 in 9.0 mi SW 6.9 mph - N/A   Clear
8:15 AM 82.4 °F 89.5 °F 75.2 °F 79% 30.08 in 10.0 mi SSW 6.9 mph - N/A   Clear
8:35 AM 82.4 °F 89.5 °F 75.2 °F 79% 30.08 in 10.0 mi WSW 5.8 mph - N/A   Scattered Clouds
8:55 AM 80.6 °F 86.2 °F 75.2 °F 84% 30.08 in 10.0 mi WSW 4.6 mph - N/A   Mostly Cloudy
9:15 AM 80.6 °F 86.2 °F 75.2 °F 84% 30.09 in 10.0 mi West 3.5 mph - N/A   Mostly Cloudy
9:35 AM 80.6 °F 86.2 °F 75.2 °F 84% 30.10 in 5.0 mi WNW 13.8 mph 19.6 mph 0.01 in Rain Heavy Rain
9:55 AM 75.2 °F - 73.4 °F 94% 30.09 in 2.5 mi NW 4.6 mph - 0.22 in   Overcast
10:15 AM 78.8 °F - 75.2 °F 89% 30.10 in 10.0 mi Calm Calm - N/A Thunderstorm Partly Cloudy
10:35 AM 78.8 °F - 75.2 °F 89% 30.10 in 10.0 mi Calm Calm - N/A   Clear
10:55 AM 80.6 °F 86.2 °F 75.2 °F 84% 30.10 in 10.0 mi WNW 4.6 mph - N/A Thunderstorm Clear
11:15 AM 80.6 °F 86.2 °F 75.2 °F 84% 30.10 in 10.0 mi WSW 6.9 mph - N/A   Partly Cloudy
11:35 AM 80.6 °F 86.2 °F 75.2 °F 84% 30.11 in 10.0 mi Calm Calm - N/A   Clear
11:55 AM 82.4 °F 89.5 °F 75.2 °F 79% 30.10 in 10.0 mi SW 6.9 mph - N/A   Partly Cloudy
12:15 PM 82.4 °F 88.2 °F 73.4 °F 74% 30.10 in 10.0 mi SSW 6.9 mph - N/A   Partly Cloudy
12:35 PM 84.2 °F 90.9 °F 73.4 °F 70% 30.09 in 9.0 mi SSW 9.2 mph - N/A   Clear
12:55 PM 86.0 °F 93.4 °F 73.4 °F 66% 30.09 in 10.0 mi SW 9.2 mph 19.6 mph N/A   Clear
1:15 PM 86.0 °F 93.4 °F 73.4 °F 66% 30.08 in 10.0 mi SSW 6.9 mph - N/A   Clear
1:35 PM 84.2 °F 92.3 °F 75.2 °F 74% 30.07 in 10.0 mi South 9.2 mph - N/A   Mostly Cloudy
1:55 PM 84.2 °F 92.3 °F 75.2 °F 74% 30.06 in 9.0 mi South 10.4 mph 17.3 mph N/A   Scattered Clouds
2:15 PM 84.2 °F 90.9 °F 73.4 °F 70% 30.05 in 10.0 mi South 13.8 mph 18.4 mph N/A   Partly Cloudy
2:35 PM 84.2 °F 92.3 °F 75.2 °F 74% 30.05 in 10.0 mi South 16.1 mph 23.0 mph N/A   Scattered Clouds
2:55 PM 87.8 °F 97.6 °F 75.2 °F 66% 30.05 in 10.0 mi South 15.0 mph 25.3 mph N/A   Partly Cloudy
3:15 PM 84.2 °F 92.3 °F 75.2 °F 74% 30.04 in 10.0 mi South 15.0 mph 25.3 mph N/A   Partly Cloudy
3:35 PM 75.2 °F - 73.4 °F 94% 30.04 in 0.2 mi SE 12.7 mph 27.6 mph 0.22 in Rain Heavy Rain
3:55 PM 77.0 °F - 75.2 °F 94% 30.03 in 1.0 mi South 9.2 mph - 0.58 in   Light Drizzle
4:15 PM 82.4 °F 92.4 °F 78.8 °F 89% 30.02 in 7.0 mi South 11.5 mph - N/A   Partly Cloudy
4:35 PM 84.2 °F 92.3 °F 75.2 °F 74% 30.03 in 8.0 mi South 13.8 mph 18.4 mph N/A   Clear
4:55 PM 82.4 °F 89.5 °F 75.2 °F 79% 30.02 in 8.0 mi South 15.0 mph 19.6 mph N/A   Partly Cloudy
5:15 PM 84.2 °F 92.3 °F 75.2 °F 74% 30.02 in 8.0 mi South 13.8 mph 19.6 mph N/A   Clear
5:35 PM 84.2 °F 90.9 °F 73.4 °F 70% 30.02 in 8.0 mi South 16.1 mph 23.0 mph N/A   Clear
5:55 PM 78.8 °F - 75.2 °F 89% 30.01 in 3.0 mi SSW 10.4 mph 17.3 mph N/A   Clear
6:15 PM 80.6 °F 85.4 °F 73.4 °F 79% 30.02 in 10.0 mi SSW 8.1 mph - N/A   Partly Cloudy
6:35 PM 80.6 °F 85.4 °F 73.4 °F 79% 30.01 in 10.0 mi SSW 6.9 mph - N/A   Partly Cloudy
6:55 PM 80.6 °F 85.4 °F 73.4 °F 79% 30.02 in 10.0 mi South 5.8 mph - N/A   Clear
7:15 PM 80.6 °F 85.4 °F 73.4 °F 79% 30.03 in 9.0 mi South 6.9 mph - N/A   Clear
7:35 PM 82.4 °F 89.5 °F 75.2 °F 79% 30.03 in 9.0 mi South 9.2 mph - N/A   Partly Cloudy
7:55 PM 80.6 °F 86.2 °F 75.2 °F 84% 30.02 in 8.0 mi SSW 10.4 mph - N/A   Partly Cloudy
8:15 PM 80.6 °F 86.2 °F 75.2 °F 84% 30.02 in 8.0 mi South 8.1 mph - N/A   Scattered Clouds
8:35 PM 80.6 °F 87.1 °F 77.0 °F 89% 30.02 in 2.0 mi SSE 10.4 mph - 0.05 in Rain Light Rain
8:55 PM 78.8 °F - 77.0 °F 94% 30.02 in 7.0 mi South 11.5 mph - 0.05 in   Mostly Cloudy
9:15 PM 78.8 °F - 77.0 °F 94% 30.02 in 7.0 mi South 18.4 mph 32.2 mph N/A   Mostly Cloudy
9:35 PM 77.0 °F - 75.2 °F 94% 30.04 in 7.0 mi SSW 13.8 mph 23.0 mph N/A   Mostly Cloudy
9:55 PM 78.8 °F - 73.4 °F 83% 30.04 in 8.0 mi South 9.2 mph 19.6 mph N/A   Partly Cloudy
10:15 PM 78.8 °F - 73.4 °F 83% 30.03 in 9.0 mi SSW 9.2 mph - N/A   Clear
10:35 PM 78.8 °F - 73.4 °F 83% 30.04 in 10.0 mi SSW 10.4 mph 16.1 mph N/A   Clear
10:55 PM 78.8 °F - 73.4 °F 83% 30.04 in 10.0 mi SSW 8.1 mph 16.1 mph N/A   Clear
11:15 PM 78.8 °F - 73.4 °F 83% 30.05 in 10.0 mi SSW 10.4 mph - N/A   Clear
11:35 PM 78.8 °F - 73.4 °F 83% 30.05 in 10.0 mi SSW 6.9 mph - N/A   Clear
11:55 PM 78.8 °F - 73.4 °F 83% 30.05 in 10.0 mi Calm Calm - N/A   Clear